User: anonymous   Login
Location: Unspecified
(0.0000°N, 0.0000°E)
Time: 14:45:24
(UTC+00:00)
Language:

DOVE 2 - Orbit

View from above orbital plane
View from above orbital plane
View from above satellite
View from above satellite

Ground track
Ground track

The orbit data is extracted from the following two-line orbital elements,

1 39132U 13015C   17206.21066606 +.00000295 +00000-0 +31773-4 0  9992
2 39132 064.8757 155.7042 0038471 273.5985 086.0735 15.06606213234225
Epoch (UTC): 25 July 2017 05:03:21
Eccentricity: 0.0038471
inclination: 64.8757°
perigee height: 520 km
apogee height: 573 km
right ascension of ascending node: 155.7042°
argument of perigee: 273.5985°
revolutions per day: 15.06606213
mean anomaly at epoch: 86.0735°
orbit number at epoch: 23422

The dashed part of the orbit path shows where the satellite is in the earth's shadow,  

DLR